Location: Abraham Lincoln Continuation High School
(33.9711°N, 117.3662°W)
Time: 13:13:58
(UTC+00:00)

HJ-1C - Pass Details

Date: 21 September 2020
Orbit: 432 x 443 km, 97.1° (Epoch: 29 October)

Event Time Altitude Azimuth Distance (km) Brightness Sun altitude
Exits shadow 02:25:08 - 141° (SE) 2,017 6.3 -8.5°
Reaches altitude 10° 02:26:24 10° 132° (SE) 1,530 5.6 -8.8°
Maximum altitude 02:29:11 26° 74° (ENE) 890 4.4 -9.3°
Drops below altitude 10° 02:31:59 10° 15° (NNE) 1,542 6.0 -9.9°
Sets 02:34:12 0° 3° (N) 2,415 7.2 -10.4°
